CDC8723 ZSHC-ZUGY

Flight info

Callsign CDC8723
Flight time 2h 12m
Altitude 34100
Route ABVIL8D ABVIL G204 OREXA DCT P395 DCT AVDIP W226 IPMUG W611 BIVAV DCT EXUMO DCT UBGUP UBGUP9Z
Aircraft A320/M-SDE3FGHIRWY/LB1

Departure

Time 2026-05-04 19:24
Airport Hangzhou Xiaoshan International Airport (ZSHC)

Arrival

Time 2026-05-04 21:36
Airport Guiyang Longdongbao International Airport (ZUGY)
Time Latitude Longitude Altitude Speed Heading
2026-05-04 18:51 30.24063 120.43438 32 ft 0 kts 202°
2026-05-04 19:13 30.24082 120.43447 29 ft 4 kts 202°
2026-05-04 19:13 30.24105 120.43457 30 ft 4 kts 195°
2026-05-04 19:14 30.24130 120.43459 32 ft 4 kts 151°
2026-05-04 19:14 30.24144 120.43439 32 ft 4 kts 99°
2026-05-04 19:14 30.24145 120.43408 32 ft 4 kts 78°
2026-05-04 19:14 30.24139 120.43385 29 ft 0 kts 63°
2026-05-04 19:18 30.24141 120.43390 30 ft 3 kts 63°
2026-05-04 19:18 30.24164 120.43443 30 ft 12 kts 63°
2026-05-04 19:18 30.24209 120.43547 32 ft 15 kts 63°
2026-05-04 19:18 30.24209 120.43638 30 ft 11 kts 140°
2026-05-04 19:19 30.24148 120.43677 32 ft 9 kts 152°
2026-05-04 19:19 30.24074 120.43720 32 ft 16 kts 153°
2026-05-04 19:19 30.23962 120.43785 30 ft 19 kts 152°
2026-05-04 19:19 30.23842 120.43857 31 ft 20 kts 153°
2026-05-04 19:20 30.23714 120.43928 30 ft 21 kts 154°
2026-05-04 19:20 30.23585 120.44007 32 ft 22 kts 153°
2026-05-04 19:20 30.23462 120.44087 32 ft 15 kts 141°
2026-05-04 19:20 30.23469 120.44176 32 ft 14 kts 58°
2026-05-04 19:21 30.23521 120.44290 32 ft 18 kts 64°
2026-05-04 19:21 30.23580 120.44434 32 ft 21 kts 65°
2026-05-04 19:21 30.23646 120.44586 32 ft 22 kts 61°
2026-05-04 19:21 30.23717 120.44742 32 ft 22 kts 63°
2026-05-04 19:22 30.23788 120.44901 32 ft 17 kts 62°
2026-05-04 19:22 30.23810 120.45011 31 ft 13 kts 133°
2026-05-04 19:22 30.23738 120.45060 30 ft 12 kts 153°
2026-05-04 19:22 30.23670 120.45066 30 ft 8 kts 230°
2026-05-04 19:23 30.23664 120.45051 30 ft 0 kts 244°
2026-05-04 19:23 30.23647 120.45011 30 ft 25 kts 244°
2026-05-04 19:23 30.23451 120.44572 33 ft 94 kts 243°
2026-05-04 19:23 30.23067 120.43701 34 ft 147 kts 243°
2026-05-04 19:24 30.22546 120.42523 259 ft 169 kts 242°
2026-05-04 19:24 30.21981 120.41356 996 ft 164 kts 230°
2026-05-04 19:24 30.21209 120.40409 1710 ft 161 kts 223°
2026-05-04 19:24 30.20381 120.39456 2179 ft 175 kts 223°
2026-05-04 19:25 30.19503 120.38397 2557 ft 190 kts 225°
2026-05-04 19:25 30.18575 120.37227 2934 ft 206 kts 226°
2026-05-04 19:25 30.17573 120.35957 3178 ft 230 kts 226°
2026-05-04 19:25 30.16424 120.34508 3495 ft 255 kts 227°
2026-05-04 19:26 30.15216 120.32960 4212 ft 263 kts 227°
2026-05-04 19:26 30.13992 120.31368 5035 ft 267 kts 228°
2026-05-04 19:26 30.12748 120.29754 5833 ft 271 kts 227°
2026-05-04 19:26 30.11477 120.28116 6590 ft 276 kts 228°
2026-05-04 19:27 30.10621 120.27020 7070 ft 279 kts 228°
2026-05-04 19:27 30.09308 120.25347 7836 ft 283 kts 228°
2026-05-04 19:27 30.08027 120.23604 8588 ft 286 kts 236°
2026-05-04 19:27 30.07106 120.21564 9350 ft 289 kts 251°
2026-05-04 19:28 30.06561 120.19323 10105 ft 291 kts 256°
2026-05-04 19:28 30.06049 120.17052 10821 ft 293 kts 256°
2026-05-04 19:28 30.05531 120.14770 11554 ft 294 kts 255°
2026-05-04 19:28 30.05011 120.12476 12290 ft 296 kts 255°
2026-05-04 19:29 30.04488 120.10170 13020 ft 298 kts 255°
2026-05-04 19:29 30.03959 120.07850 13750 ft 300 kts 255°
2026-05-04 19:29 30.03427 120.05518 14401 ft 301 kts 255°
2026-05-04 19:29 30.02892 120.03177 15043 ft 302 kts 255°
2026-05-04 19:30 30.02347 120.00826 15673 ft 304 kts 253°
2026-05-04 19:30 30.01512 119.98565 16107 ft 314 kts 242°
2026-05-04 19:30 30.00418 119.96337 16235 ft 332 kts 242°
2026-05-04 19:30 29.99237 119.93964 16366 ft 349 kts 241°
2026-05-04 19:31 29.98000 119.91494 16661 ft 360 kts 241°
2026-05-04 19:31 29.96740 119.88978 17168 ft 364 kts 242°
2026-05-04 19:31 29.95474 119.86439 17730 ft 366 kts 242°
2026-05-04 19:31 29.94203 119.83885 18315 ft 368 kts 242°
2026-05-04 19:32 29.92928 119.81321 18798 ft 370 kts 242°
2026-05-04 19:32 29.91642 119.78739 19243 ft 372 kts 242°
2026-05-04 19:32 29.90349 119.76149 19736 ft 374 kts 242°
2026-05-04 19:32 29.89052 119.73545 20226 ft 375 kts 242°
2026-05-04 19:33 29.87765 119.70966 20734 ft 376 kts 242°
2026-05-04 19:33 29.86457 119.68346 21216 ft 377 kts 242°
2026-05-04 19:33 29.85090 119.65755 21698 ft 380 kts 237°
2026-05-04 19:33 29.83570 119.63259 22149 ft 381 kts 237°
2026-05-04 19:34 29.82044 119.60754 22671 ft 382 kts 238°
2026-05-04 19:34 29.80519 119.58248 23138 ft 383 kts 238°
2026-05-04 19:34 29.78982 119.55726 23602 ft 384 kts 238°
2026-05-04 19:34 29.77462 119.53233 23975 ft 386 kts 238°
2026-05-04 19:35 29.75916 119.50700 24345 ft 387 kts 238°
2026-05-04 19:35 29.74368 119.48164 24692 ft 386 kts 238°
2026-05-04 19:35 29.72823 119.45633 24987 ft 386 kts 238°
2026-05-04 19:35 29.71280 119.43108 25404 ft 385 kts 238°
2026-05-04 19:36 29.69736 119.40587 25798 ft 384 kts 238°
2026-05-04 19:36 29.68219 119.38114 26201 ft 383 kts 238°
2026-05-04 19:36 29.66696 119.35603 26601 ft 382 kts 240°
2026-05-04 19:36 29.65568 119.32874 27016 ft 377 kts 251°
2026-05-04 19:37 29.64692 119.30033 27416 ft 375 kts 251°
2026-05-04 19:37 29.63821 119.27201 27829 ft 374 kts 251°
2026-05-04 19:37 29.62959 119.24381 28254 ft 374 kts 251°
2026-05-04 19:37 29.62099 119.21557 28615 ft 374 kts 251°
2026-05-04 19:38 29.61241 119.18735 28980 ft 374 kts 251°
2026-05-04 19:38 29.60392 119.15952 29317 ft 373 kts 251°
2026-05-04 19:38 29.59535 119.13144 29679 ft 373 kts 251°
2026-05-04 19:38 29.58677 119.10327 29998 ft 373 kts 251°
2026-05-04 19:39 29.57817 119.07507 30313 ft 372 kts 251°
2026-05-04 19:39 29.56965 119.04711 30661 ft 370 kts 251°
2026-05-04 19:39 29.56115 119.01928 30986 ft 368 kts 251°
2026-05-04 19:39 29.55268 118.99154 31291 ft 367 kts 251°
2026-05-04 19:40 29.54435 118.96424 31580 ft 366 kts 251°
2026-05-04 19:40 29.53589 118.93664 31889 ft 366 kts 251°
2026-05-04 19:40 29.52740 118.90908 32159 ft 366 kts 251°
2026-05-04 19:40 29.51893 118.88159 32397 ft 365 kts 251°
2026-05-04 19:41 29.51048 118.85414 32709 ft 364 kts 251°
2026-05-04 19:41 29.50210 118.82676 33005 ft 363 kts 251°
2026-05-04 19:41 29.49373 118.79944 33296 ft 362 kts 251°
2026-05-04 19:41 29.48533 118.77219 33587 ft 361 kts 251°
2026-05-04 19:42 29.47693 118.74502 33877 ft 361 kts 251°
2026-05-04 19:42 29.46866 118.71827 34101 ft 360 kts 251°
2026-05-04 19:42 29.46030 118.69116 34162 ft 359 kts 251°
2026-05-04 19:43 29.44368 118.63725 34177 ft 357 kts 251°
2026-05-04 19:43 29.42706 118.58352 34173 ft 357 kts 251°
2026-05-04 19:44 29.41049 118.53000 34172 ft 357 kts 251°
2026-05-04 19:44 29.39381 118.47630 34175 ft 357 kts 251°
2026-05-04 19:45 29.37716 118.42260 34172 ft 357 kts 251°
2026-05-04 19:45 29.36048 118.36896 34143 ft 357 kts 251°
2026-05-04 19:46 29.34378 118.31562 34147 ft 358 kts 251°
2026-05-04 19:46 29.32703 118.26197 34140 ft 358 kts 251°
2026-05-04 19:47 29.31022 118.20828 34144 ft 358 kts 251°
2026-05-04 19:47 29.29337 118.15464 34137 ft 358 kts 251°
2026-05-04 19:48 29.27649 118.10093 34138 ft 359 kts 251°
2026-05-04 19:48 29.25972 118.04752 34154 ft 359 kts 251°
2026-05-04 19:49 29.24278 117.99367 34143 ft 359 kts 251°
2026-05-04 19:49 29.22585 117.93984 34096 ft 359 kts 251°
2026-05-04 19:50 29.20881 117.88589 34138 ft 361 kts 251°
2026-05-04 19:50 29.19171 117.83186 34133 ft 361 kts 251°
2026-05-04 19:51 29.17456 117.77793 34139 ft 360 kts 251°
2026-05-04 19:51 29.15761 117.72447 34137 ft 360 kts 252°
2026-05-04 19:52 29.14052 117.67063 34135 ft 360 kts 251°
2026-05-04 19:52 29.12338 117.61683 34129 ft 360 kts 251°
2026-05-04 19:53 29.10623 117.56303 34127 ft 360 kts 251°
2026-05-04 19:53 29.08902 117.50926 34125 ft 360 kts 251°
2026-05-04 19:54 29.07176 117.45546 34100 ft 360 kts 252°
2026-05-04 19:54 29.05463 117.40197 34106 ft 360 kts 252°
2026-05-04 19:55 29.03734 117.34810 34108 ft 361 kts 252°
2026-05-04 19:55 29.02005 117.29429 34113 ft 361 kts 252°
2026-05-04 19:56 29.00281 117.24042 34119 ft 361 kts 252°
2026-05-04 19:56 28.98590 117.18639 34121 ft 361 kts 252°
2026-05-04 19:57 28.96900 117.13243 34114 ft 361 kts 252°
2026-05-04 19:57 28.95195 117.07840 34110 ft 362 kts 252°
2026-05-04 19:58 28.93495 117.02469 34109 ft 362 kts 252°
2026-05-04 19:58 28.91780 116.97057 34079 ft 362 kts 252°
2026-05-04 19:59 28.90057 116.91638 34094 ft 363 kts 252°
2026-05-04 19:59 28.88332 116.86215 34103 ft 363 kts 252°
2026-05-04 20:00 28.86624 116.80827 34103 ft 363 kts 252°
2026-05-04 20:00 28.84902 116.75401 34105 ft 364 kts 252°
2026-05-04 20:01 28.83171 116.69976 34108 ft 364 kts 252°
2026-05-04 20:01 28.81429 116.64542 34108 ft 364 kts 252°
2026-05-04 20:02 28.79704 116.59150 34103 ft 364 kts 252°
2026-05-04 20:02 28.77965 116.53718 34122 ft 364 kts 252°
2026-05-04 20:03 28.76214 116.48293 34066 ft 365 kts 252°
2026-05-04 20:03 28.74463 116.42857 34087 ft 366 kts 252°
2026-05-04 20:04 28.72706 116.37410 34095 ft 366 kts 252°
2026-05-04 20:04 28.70963 116.32009 34098 ft 366 kts 252°
2026-05-04 20:05 28.69209 116.26573 34098 ft 366 kts 252°
2026-05-04 20:05 28.67453 116.21136 34105 ft 366 kts 252°
2026-05-04 20:06 28.65693 116.15691 34105 ft 366 kts 252°
2026-05-04 20:06 28.63923 116.10244 34103 ft 367 kts 252°
2026-05-04 20:07 28.62164 116.04833 34100 ft 367 kts 252°
2026-05-04 20:07 28.60387 115.99389 34101 ft 367 kts 252°
2026-05-04 20:08 28.58603 115.93943 34112 ft 367 kts 252°
2026-05-04 20:08 28.56825 115.88492 34102 ft 368 kts 252°
2026-05-04 20:09 28.55058 115.83069 34097 ft 368 kts 252°
2026-05-04 20:09 28.53272 115.77611 34098 ft 368 kts 252°
2026-05-04 20:10 28.51480 115.72152 34103 ft 368 kts 252°
2026-05-04 20:10 28.49679 115.66692 34103 ft 369 kts 252°
2026-05-04 20:11 28.48296 115.61111 34102 ft 366 kts 262°
2026-05-04 20:11 28.47519 115.55384 34098 ft 367 kts 262°
2026-05-04 20:12 28.46725 115.49644 34106 ft 368 kts 262°
2026-05-04 20:12 28.45923 115.43899 34107 ft 368 kts 262°
2026-05-04 20:13 28.45123 115.38182 34090 ft 368 kts 262°
2026-05-04 20:13 28.44315 115.32429 34109 ft 369 kts 262°
2026-05-04 20:14 28.43504 115.26673 34114 ft 369 kts 262°
2026-05-04 20:14 28.42689 115.20913 34119 ft 369 kts 262°
2026-05-04 20:15 28.41877 115.15195 34113 ft 369 kts 262°
2026-05-04 20:15 28.41058 115.09438 34115 ft 369 kts 262°
2026-05-04 20:16 28.40240 115.03683 34119 ft 369 kts 262°
2026-05-04 20:16 28.39415 114.97925 34127 ft 369 kts 262°
2026-05-04 20:17 28.38581 114.92160 34123 ft 370 kts 262°
2026-05-04 20:17 28.37759 114.86434 34122 ft 370 kts 262°
2026-05-04 20:18 28.36935 114.80669 34121 ft 370 kts 262°
2026-05-04 20:18 28.36104 114.74903 34119 ft 370 kts 262°
2026-05-04 20:19 28.35265 114.69137 34119 ft 370 kts 262°
2026-05-04 20:19 28.34418 114.63360 34125 ft 370 kts 262°
2026-05-04 20:20 28.33575 114.57595 34095 ft 370 kts 262°
2026-05-04 20:20 28.32732 114.51865 34104 ft 371 kts 262°
2026-05-04 20:21 28.31882 114.46087 34108 ft 371 kts 261°
2026-05-04 20:21 28.30601 114.37399 34126 ft 371 kts 262°
2026-05-04 20:22 28.29861 114.31635 34127 ft 371 kts 264°
2026-05-04 20:22 28.29232 114.25820 34125 ft 371 kts 264°
2026-05-04 20:23 28.28589 114.19999 34123 ft 371 kts 263°
2026-05-04 20:23 28.27916 114.14185 34124 ft 372 kts 263°
2026-05-04 20:24 28.27346 114.09350 34121 ft 372 kts 263°
2026-05-04 20:24 28.26660 114.03532 34135 ft 372 kts 264°
2026-05-04 20:25 28.25973 113.97703 34127 ft 372 kts 263°
2026-05-04 20:25 28.25286 113.91876 34125 ft 372 kts 264°
2026-05-04 20:26 28.24603 113.86091 34121 ft 373 kts 263°
2026-05-04 20:26 28.23904 113.80252 34122 ft 373 kts 263°
2026-05-04 20:27 28.23205 113.74416 34093 ft 373 kts 263°
2026-05-04 20:27 28.22506 113.68570 34101 ft 374 kts 263°
2026-05-04 20:28 28.21797 113.62717 34105 ft 375 kts 263°
2026-05-04 20:28 28.21084 113.56892 34101 ft 375 kts 263°
2026-05-04 20:29 28.20370 113.51019 34104 ft 375 kts 263°
2026-05-04 20:29 28.19650 113.45165 34099 ft 375 kts 263°
2026-05-04 20:30 28.18931 113.39293 34105 ft 375 kts 264°
2026-05-04 20:30 28.18217 113.33433 34104 ft 375 kts 264°
2026-05-04 20:31 28.17502 113.27606 34102 ft 375 kts 264°
2026-05-04 20:31 28.16777 113.21742 34102 ft 375 kts 264°
2026-05-04 20:32 28.16045 113.15888 34101 ft 375 kts 264°
2026-05-04 20:32 28.15314 113.10035 34107 ft 375 kts 264°
2026-05-04 20:33 28.14593 113.04230 34105 ft 374 kts 264°
2026-05-04 20:33 28.13856 112.98347 34105 ft 374 kts 264°
2026-05-04 20:34 28.13666 112.92525 34102 ft 373 kts 274°
2026-05-04 20:34 28.14020 112.86663 34099 ft 373 kts 273°
2026-05-04 20:35 28.14364 112.80803 34091 ft 372 kts 274°
2026-05-04 20:35 28.14704 112.74936 34088 ft 373 kts 273°
2026-05-04 20:36 28.15036 112.69072 34050 ft 373 kts 274°
2026-05-04 20:36 28.15369 112.63248 34059 ft 372 kts 274°
2026-05-04 20:37 28.15706 112.57378 34068 ft 372 kts 274°
2026-05-04 20:37 28.16034 112.51529 34070 ft 372 kts 274°
2026-05-04 20:38 28.16352 112.45680 34066 ft 372 kts 274°
2026-05-04 20:38 28.16676 112.39828 34066 ft 372 kts 274°
2026-05-04 20:39 28.16995 112.34006 34068 ft 372 kts 274°
2026-05-04 20:39 28.17311 112.28151 34076 ft 372 kts 274°
2026-05-04 20:40 28.17623 112.22278 34081 ft 373 kts 274°
2026-05-04 20:40 28.18173 112.16434 34083 ft 373 kts 277°
2026-05-04 20:41 28.18941 112.10621 34085 ft 373 kts 277°
2026-05-04 20:41 28.19702 112.04799 34086 ft 374 kts 277°
2026-05-04 20:42 28.20401 111.98987 34087 ft 374 kts 275°
2026-05-04 20:42 28.19916 111.93126 34090 ft 377 kts 259°
2026-05-04 20:43 28.18661 111.87348 34085 ft 377 kts 259°
2026-05-04 20:43 28.17424 111.81566 34086 ft 378 kts 259°
2026-05-04 20:44 28.16190 111.75812 34088 ft 378 kts 259°
2026-05-04 20:44 28.14938 111.70014 34096 ft 378 kts 259°
2026-05-04 20:45 28.13685 111.64229 34097 ft 378 kts 259°
2026-05-04 20:45 28.12436 111.58470 34091 ft 379 kts 259°
2026-05-04 20:46 28.11182 111.52678 34092 ft 379 kts 259°
2026-05-04 20:46 28.09924 111.46883 34091 ft 379 kts 259°
2026-05-04 20:47 28.08657 111.41081 34063 ft 379 kts 260°
2026-05-04 20:47 28.07399 111.35311 34081 ft 379 kts 260°
2026-05-04 20:48 28.06136 111.29515 34091 ft 379 kts 260°
2026-05-04 20:48 28.04860 111.23728 34093 ft 378 kts 260°
2026-05-04 20:49 28.03590 111.17937 34098 ft 378 kts 260°
2026-05-04 20:49 28.02322 111.12159 34096 ft 378 kts 261°
2026-05-04 20:50 28.01055 111.06425 34102 ft 378 kts 260°
2026-05-04 20:50 27.99774 111.00652 34099 ft 378 kts 261°
2026-05-04 20:51 27.98491 110.94871 34094 ft 378 kts 260°
2026-05-04 20:51 27.97206 110.89107 34096 ft 378 kts 261°
2026-05-04 20:52 27.95923 110.83333 34104 ft 378 kts 261°
2026-05-04 20:52 27.94641 110.77585 34105 ft 378 kts 261°
2026-05-04 20:53 27.93352 110.71818 34104 ft 378 kts 261°
2026-05-04 20:53 27.92064 110.66059 34076 ft 377 kts 261°
2026-05-04 20:54 27.90774 110.60305 34080 ft 377 kts 261°
2026-05-04 20:54 27.89475 110.54553 34092 ft 378 kts 261°
2026-05-04 20:55 27.88175 110.48801 34098 ft 378 kts 261°
2026-05-04 20:55 27.86877 110.43052 34093 ft 377 kts 261°
2026-05-04 20:56 27.85583 110.37334 34093 ft 377 kts 261°
2026-05-04 20:56 27.84286 110.31598 34084 ft 376 kts 261°
2026-05-04 20:57 27.82987 110.25866 34080 ft 377 kts 261°
2026-05-04 20:57 27.81680 110.20130 34087 ft 377 kts 261°
2026-05-04 20:58 27.80366 110.14395 34088 ft 377 kts 261°
2026-05-04 20:58 27.79059 110.08669 34077 ft 376 kts 261°
2026-05-04 20:59 27.77747 110.02947 34075 ft 376 kts 261°
2026-05-04 20:59 27.76433 109.97264 34074 ft 376 kts 261°
2026-05-04 21:00 27.75114 109.91537 34059 ft 377 kts 261°
2026-05-04 21:00 27.73799 109.85807 34066 ft 377 kts 261°
2026-05-04 21:01 27.72471 109.80074 34067 ft 377 kts 261°
2026-05-04 21:01 27.71141 109.74340 34071 ft 378 kts 261°
2026-05-04 21:02 27.69812 109.68597 34076 ft 378 kts 261°
2026-05-04 21:02 27.68493 109.62900 34082 ft 378 kts 261°
2026-05-04 21:03 27.67160 109.57164 34086 ft 378 kts 261°
2026-05-04 21:03 27.65813 109.51419 34087 ft 378 kts 261°
2026-05-04 21:04 27.64470 109.45683 34082 ft 378 kts 261°
2026-05-04 21:04 27.63134 109.39973 34090 ft 378 kts 261°
2026-05-04 21:05 27.61792 109.34243 34095 ft 378 kts 261°
2026-05-04 21:05 27.60437 109.28512 34092 ft 378 kts 261°
2026-05-04 21:06 27.58762 109.22863 34095 ft 388 kts 250°
2026-05-04 21:06 27.55680 109.17723 34087 ft 398 kts 243°
2026-05-04 21:07 27.52477 109.12625 34086 ft 398 kts 244°
2026-05-04 21:07 27.49299 109.07556 34095 ft 399 kts 243°
2026-05-04 21:08 27.46092 109.02459 34100 ft 399 kts 243°
2026-05-04 21:08 27.42875 108.97358 34115 ft 399 kts 243°
2026-05-04 21:09 27.39658 108.92260 34116 ft 399 kts 243°
2026-05-04 21:09 27.36436 108.87165 34115 ft 399 kts 243°
2026-05-04 21:10 27.33211 108.82078 34113 ft 399 kts 243°
2026-05-04 21:10 27.30007 108.77016 34122 ft 400 kts 243°
2026-05-04 21:11 27.26785 108.71917 34133 ft 399 kts 243°
2026-05-04 21:11 27.23552 108.66822 34132 ft 399 kts 243°
2026-05-04 21:12 27.20346 108.61770 34145 ft 399 kts 242°
2026-05-04 21:12 27.17103 108.56695 34137 ft 400 kts 242°
2026-05-04 21:13 27.13867 108.51630 34155 ft 400 kts 243°
2026-05-04 21:13 27.11185 108.47411 34155 ft 399 kts 243°
2026-05-04 21:14 27.07953 108.42339 34155 ft 399 kts 243°
2026-05-04 21:14 27.04709 108.37264 34144 ft 400 kts 243°
2026-05-04 21:15 27.01760 108.32036 34147 ft 389 kts 253°
2026-05-04 21:15 27.00541 108.26270 34156 ft 377 kts 270°
2026-05-04 21:16 27.00237 108.20443 34145 ft 377 kts 270°
2026-05-04 21:16 26.99920 108.14568 34156 ft 378 kts 270°
2026-05-04 21:17 26.99598 108.08665 33519 ft 382 kts 270°
2026-05-04 21:17 26.99438 108.05639 32137 ft 396 kts 270°
2026-05-04 21:17 26.99269 108.02515 31155 ft 402 kts 270°
2026-05-04 21:18 26.99094 107.99405 30345 ft 405 kts 270°
2026-05-04 21:18 26.98913 107.96253 29527 ft 404 kts 270°
2026-05-04 21:18 26.98733 107.93126 28918 ft 399 kts 270°
2026-05-04 21:18 26.98556 107.90043 28325 ft 393 kts 270°
2026-05-04 21:19 26.98382 107.86999 27729 ft 389 kts 270°
2026-05-04 21:19 26.98214 107.83987 27144 ft 384 kts 270°
2026-05-04 21:19 26.98047 107.81005 26575 ft 380 kts 270°
2026-05-04 21:19 26.97883 107.78101 26028 ft 376 kts 270°
2026-05-04 21:20 26.97718 107.75186 25484 ft 371 kts 270°
2026-05-04 21:20 26.97556 107.72309 24970 ft 367 kts 270°
2026-05-04 21:20 26.97395 107.69468 24470 ft 363 kts 270°
2026-05-04 21:20 26.97233 107.66654 23979 ft 360 kts 270°
2026-05-04 21:21 26.97073 107.63864 23475 ft 357 kts 269°
2026-05-04 21:21 26.96914 107.61141 22978 ft 352 kts 270°
2026-05-04 21:21 26.96753 107.58422 22532 ft 346 kts 270°
2026-05-04 21:21 26.96594 107.55748 22074 ft 342 kts 270°
2026-05-04 21:22 26.96438 107.53098 21631 ft 337 kts 270°
2026-05-04 21:22 26.96282 107.50484 21189 ft 334 kts 270°
2026-05-04 21:22 26.96131 107.47928 20745 ft 332 kts 270°
2026-05-04 21:22 26.95979 107.45349 20303 ft 330 kts 270°
2026-05-04 21:23 26.95829 107.42782 19848 ft 329 kts 270°
2026-05-04 21:23 26.95680 107.40224 19390 ft 329 kts 271°
2026-05-04 21:23 26.95530 107.37660 18928 ft 329 kts 271°
2026-05-04 21:23 26.95380 107.35102 18472 ft 329 kts 271°
2026-05-04 21:24 26.95229 107.32536 17970 ft 329 kts 271°
2026-05-04 21:24 26.95077 107.29974 17506 ft 329 kts 270°
2026-05-04 21:24 26.94924 107.27458 17059 ft 328 kts 270°
2026-05-04 21:24 26.94768 107.24909 16604 ft 328 kts 270°
2026-05-04 21:25 26.94611 107.22363 16165 ft 327 kts 270°
2026-05-04 21:25 26.94453 107.19816 15718 ft 327 kts 270°
2026-05-04 21:25 26.94297 107.17271 15277 ft 328 kts 270°
2026-05-04 21:25 26.94140 107.14748 15156 ft 317 kts 270°
2026-05-04 21:26 26.93988 107.12312 15033 ft 308 kts 270°
2026-05-04 21:26 26.93840 107.09943 14903 ft 300 kts 270°
2026-05-04 21:26 26.93700 107.07666 14773 ft 293 kts 270°
2026-05-04 21:26 26.93560 107.05422 14643 ft 285 kts 270°
2026-05-04 21:27 26.93423 107.03236 14519 ft 277 kts 270°
2026-05-04 21:27 26.93410 107.01123 14388 ft 267 kts 281°
2026-05-04 21:27 26.93718 106.99056 13950 ft 270 kts 283°
2026-05-04 21:27 26.94046 106.97004 13502 ft 265 kts 283°
2026-05-04 21:28 26.94372 106.94992 13092 ft 259 kts 283°
2026-05-04 21:28 26.94690 106.93028 12703 ft 254 kts 283°
2026-05-04 21:28 26.94929 106.91086 12320 ft 250 kts 269°
2026-05-04 21:28 26.94377 106.89263 11936 ft 252 kts 234°
2026-05-04 21:29 26.92958 106.88136 11524 ft 256 kts 199°
2026-05-04 21:29 26.91208 106.87722 11088 ft 257 kts 193°
2026-05-04 21:29 26.89475 106.87388 10692 ft 255 kts 192°
2026-05-04 21:29 26.87724 106.87089 10302 ft 253 kts 190°
2026-05-04 21:30 26.85990 106.86804 9912 ft 250 kts 192°
2026-05-04 21:30 26.84280 106.86477 9507 ft 247 kts 193°
2026-05-04 21:30 26.82599 106.86144 9145 ft 243 kts 193°
2026-05-04 21:30 26.80945 106.85818 8801 ft 238 kts 193°
2026-05-04 21:31 26.77751 106.85190 8128 ft 230 kts 193°
2026-05-04 21:31 26.76182 106.84882 7761 ft 228 kts 193°
2026-05-04 21:31 26.74634 106.84578 7449 ft 224 kts 192°
2026-05-04 21:32 26.73115 106.84279 7154 ft 219 kts 192°
2026-05-04 21:32 26.71636 106.83989 6892 ft 212 kts 192°
2026-05-04 21:32 26.70201 106.83707 6650 ft 205 kts 192°
2026-05-04 21:32 26.68829 106.83439 6386 ft 195 kts 192°
2026-05-04 21:33 26.67538 106.83186 6125 ft 185 kts 192°
2026-05-04 21:33 26.66284 106.82940 5884 ft 181 kts 191°
2026-05-04 21:33 26.65084 106.82704 5673 ft 168 kts 192°
2026-05-04 21:33 26.63985 106.82489 5445 ft 154 kts 191°
2026-05-04 21:34 26.62950 106.82286 5244 ft 148 kts 191°
2026-05-04 21:34 26.61943 106.82088 5050 ft 147 kts 191°
2026-05-04 21:34 26.60934 106.81890 4832 ft 148 kts 191°
2026-05-04 21:34 26.59919 106.81691 4613 ft 148 kts 191°
2026-05-04 21:35 26.58902 106.81492 4382 ft 149 kts 191°
2026-05-04 21:35 26.57893 106.81294 4191 ft 149 kts 191°
2026-05-04 21:35 26.56872 106.81093 3992 ft 149 kts 191°
2026-05-04 21:35 26.55856 106.80887 3806 ft 148 kts 191°
2026-05-04 21:36 26.54885 106.80694 3733 ft 125 kts 189°
2026-05-04 21:36 26.54195 106.80559 3735 ft 78 kts 190°
2026-05-04 21:36 26.53726 106.80462 3735 ft 50 kts 192°
2026-05-04 21:36 26.53528 106.80334 3738 ft 21 kts 216°
2026-05-04 21:37 26.53494 106.80236 3740 ft 7 kts 323°
2026-05-04 21:37 26.53545 106.80243 3740 ft 13 kts 14°
2026-05-04 21:37 26.53670 106.80275 3740 ft 24 kts 10°
2026-05-04 21:37 26.53840 106.80307 3739 ft 25 kts 11°
2026-05-04 21:38 26.54018 106.80345 3738 ft 26 kts
2026-05-04 21:38 26.54196 106.80375 3739 ft 13 kts
2026-05-04 21:38 26.54203 106.80350 3740 ft 1 kts 243°
2026-05-04 21:38 26.54192 106.80325 3740 ft 8 kts 243°
2026-05-04 21:39 26.54194 106.80234 3742 ft 17 kts 279°
2026-05-04 21:39 26.54215 106.80100 3742 ft 18 kts 279°
2026-05-04 21:39 26.54233 106.79982 3742 ft 14 kts 280°
2026-05-04 21:39 26.54303 106.79940 3741 ft 13 kts
2026-05-04 21:40 26.54392 106.79958 3741 ft 13 kts 10°
2026-05-04 21:40 26.54478 106.79975 3741 ft 12 kts 10°
2026-05-04 21:40 26.54556 106.79991 3741 ft 11 kts 10°
2026-05-04 21:40 26.54622 106.80005 3741 ft 9 kts 10°
2026-05-04 21:41 26.54675 106.80016 3741 ft 7 kts 10°
2026-05-04 21:41 26.54717 106.80024 3741 ft 5 kts 10°
2026-05-04 21:41 26.54747 106.80030 3741 ft 4 kts 10°
2026-05-04 21:41 26.54769 106.80031 3741 ft 4 kts 354°
2026-05-04 21:42 26.54794 106.79986 3740 ft 11 kts 283°
2026-05-04 21:42 26.54807 106.79908 3740 ft 6 kts 280°
2026-05-04 21:42 26.54804 106.79875 3740 ft 3 kts 230°
2026-05-04 21:42 26.54786 106.79870 3740 ft 4 kts 187°
2026-05-04 21:43 26.54759 106.79866 3740 ft 2 kts 189°
2026-05-04 21:43 26.54758 106.79866 3740 ft 0 kts 189°